Regional Weather Roundup
Issued by NWS

Home | Current Version | Previous Version | Text Only | Print | Product List | Glossary Off
Versions: 1 2 3 4 5 6 7 8 9 10 11 12 13 14 15 16 17 18 19 20 21 22 23 24 25 26 27 28 29 30 31 32 33 34 35 36 37 38 39 40 41 42 43 44 45 46 47 48 49 50

229
ASUS43 KDTX 221110
RWRMI
MICHIGAN HOURLY REGIONAL WEATHER ROUNDUP
NATIONAL WEATHER SERVICE DETROIT/PONTIAC MI
600 AM EST SUN JAN 22 2017

NOTE: "FAIR" INDICATES FEW OR NO CLOUDS BELOW 12,000 FEET WITH NO
SIGNIFICANT WEATHER AND/OR OBSTRUCTION TO VISIBILITY.

MIZ047>049-052>055-059>063-066>070-074>076-081>083-221200-
SOUTHEAST LOWER MICHIGAN

CITY           SKY/WX    TMP DP  RH WIND       PRES   REMARKS
ADRIAN         FOG       38  38 100 CALM      29.58S VSB 1
ALMA           FOG       34  34 100 NW6       29.58S VSB 1/4 WCI  29
ANN ARBOR      FOG       41  41 100 CALM      29.58F VSB<1/4
BAD AXE        FOG       38  38 100 CALM      29.60F VSB 1/2
CARO           FOG       41  41 100 E3        29.58F VSB 1/4
DETROIT CITY   FOG       40  40 100 E3        29.60F VSB 1/4
DETROIT        FOG       42  41  96 E3        29.60S VSB 1/16
FLINT          FOG       40  39  97 SE3       29.57F VSB<1/4
GROSSE ILE     FOG       37  37  99 CALM      29.59R VSB 1/4
HILLSDALE        N/A     37  37 100 CALM      29.57S
HOWELL         FOG       41  40  97 SE5       29.58R VSB 1/4

CITY           SKY/WX    TMP DP  RH WIND       PRES   REMARKS
JACKSON        FOG       43  42  97 SW5       29.57S VSB 1/4
LAMBERTVILLE   FOG       45  44  95 CALM      29.59R VSB 1/2
LANSING        FOG       40  38  93 CALM      29.58S VSB 1/4
LAPEER         FOG       35  35 100 E5        29.58F VSB 3/4 WCI  31
MASON          FOG       38  38 100 CALM      29.57S VSB 1/4
MONROE         FOG       38  38 100 CALM      29.59R VSB 1/2
MT. CLEMENS    MIX PCPN  37  37 100 CALM      29.58S VSB 1/4
PONTIAC        FOG       38  37  97 CALM      29.57F VSB 1/16
PORT HOPE        N/A     38  37  97 SE5       29.59F WCI  34
PORT HURON     FOG       39  39 100 CALM      29.60F VSB 1/4
TRI CITIES     FOG       37  37 100 N5        29.60R VSB<1/4 WCI  33
MIDLAND        FOG       39  38  97 NW3       29.59S VSB 1/4
TROY           FOG       40  38  95 CALM      29.61S VSB 1/4
SAGINAW HB     SNOW      36  34  93 N5        29.59R VSB 1/4 WCI  32
$$
MIZ043>046-050>051-056>058-064>065-071>073-077>080-221200-
SOUTHWEST LOWER MICHIGAN

CITY           SKY/WX    TMP DP  RH WIND       PRES   REMARKS
BATTLE CREEK   FOG       41  41 100 CALM      29.58R VSB 1/4
BENTON HARBOR  FOG       40  38  93 N3        29.58S VSB 1/4
BIG RAPIDS     FOG       35  35  98 CALM      29.57S VSB 1/2
COLDWATER      FOG       41  41 100 CALM      29.56F VSB 1/2
FREMONT        FOG       37  37 100 CALM      29.57S VSB 1/4
HOLLAND        CLOUDY    41  40  96 CALM      29.59R
GRAND RAPIDS   FOG       35  34  96 N3        29.58R VSB 1/8
IONIA          FOG       31  31 100 CALM      29.57S VSB 1/4
KALAMAZOO      FOG       40  38  93 CALM      29.58R VSB<1/4
LUDINGTON      FOG       38  38 100 CALM      29.58R VSB 1/2
MARSHALL       FOG       44  43  98 CALM      29.57S VSB 1/4
MOUNT PLEASANT FOG       36  36  99 CALM      29.58S VSB 1/4
MUSKEGON       FOG       41  40  96 CALM      29.59S VSB 1/2
SOUTH HAVEN    FOG       40  39  99 CALM      29.58S VSB 1/4
$$
MIZ016>042-221200-
NORTHERN LOWER MICHIGAN

CITY           SKY/WX    TMP DP  RH WIND       PRES   REMARKS
ALPENA         FOG       36  35  96 CALM      29.61R VSB 1/2
BEAVER ISLAND  FOG       39  39 100 SW5       29.58R VSB 1/4
BELLAIRE       FOG       34  34  99 CALM      29.59S VSB 1/2
CADILLAC       FOG       36  35  96 CALM      29.56S VSB 1/2
CHARLEVOIX     FOG       37  37 100 CALM      29.62R VSB 1
FRANKFORT      CLOUDY    38  38  99 CALM      29.57F FOG
GAYLORD        FOG       39  36  89 E3        29.57F VSB 1/2
GRAYLING       FOG       36  36  99 CALM      29.59S VSB 1/4
HARBOR SPRINGS FOG       35  35 100 NE5       29.59R VSB 1/4 WCI  31
HOUGHTON LAKE  FOG       38  37  97 NE3       29.58F VSB 1/4
MANISTEE       FOG       36  36 100 CALM      29.58R VSB 1/2
OSCODA         FOG       37  37  98 CALM      29.60S VSB 1/2
PELLSTON       FOG       35  33  92 CALM      29.59S VSB 1/4
ROGERS CITY    CLOUDY    39  38  96 S6        29.60S FOG     WCI  35
TRAVERSE CITY  FOG       38  36  92 CALM      29.57S VSB 1/2
$$
MIZ007>008-015-221200-
EASTERN UPPER MICHIGAN

CITY           SKY/WX    TMP DP  RH WIND       PRES   REMARKS
KINROSS        MIX PCPN  35  35 100 SE8       29.60S VSB 1/2 WCI  29
MACKINAC ISLAN FOG       35  35 100 E3        29.58F VSB 1/2
NEWBERRY       FOG       35  34  96 SE5       29.57R VSB 1/4 WCI  31
S. S. MARIE    FOG       37  36  96 E7        29.60R VSB 3/4 WCI  32
MUNISING         N/A     37  36  96 SW3       29.55R
$$
MIZ004>006-011>014-085-221200-
CENTRAL UPPER MICHIGAN

CITY           SKY/WX    TMP DP  RH WIND       PRES   REMARKS
MANISTIQUE     FOG       34  33  97 SE3       29.56S VSB 1/4
ESCANABA       CLOUDY    34  34 100 CALM      29.56F FOG
SAWYER-GWINN   FOG       33  32  99 CALM      29.53F VSB 3/4
$$
MIZ001>003-009>011-084-221200-
WESTERN UPPER MICHIGAN

CITY           SKY/WX    TMP DP  RH WIND       PRES   REMARKS
IRON MOUNTAIN  CLOUDY    34  31  88 CALM      29.53S
HOUGHTON       FOG       34  33  96 CALM      29.53S VSB 1/4
COPPER HARBOR    N/A     35  35 100 CALM      29.55S
IRONWOOD       FOG       34  33  96 W5        29.56S VSB 1/4 WCI  30
$$

ABBREVIATIONS USED IN REMARKS
   TC - TEMPERATURE IN CELSIUS
  WCI - WIND CHILL INDEX
   HX - HEAT INDEX
  VSB - VISIBILITY





USA.gov is the U.S. government's official web portal to all federal, state and local government web resources and services.